{"data":{"norad_id":63882,"intl_designator":"2025-094U","name":"STARLINK-34003","alt_names":[],"object_type":"PAYLOAD","status":"ACTIVE","operator":null,"country":"US","launch_date":"2025-05-10","launch_site_code":"AFWTR","launch_vehicle":null,"mission":null,"orbit_class":"UNKNOWN","rcs_meters":null,"size_class":null,"mass_kg":null,"dimensions":null,"purposes":["comms"],"wikipedia_slug":null,"has_3d_model":false,"image_url":null,"decayed_at":null,"tle_current":{"epoch":"2026-05-24T23:52:11.062272Z","epoch_age_seconds":86068,"freshness":"FRESH","line1":"1 63882U 25094U   26144.99457248  .00016642  00000+0  40446-3 0  9991","line2":"2 63882  70.0023 359.5461 0003339 270.6323  89.4475 15.41036032 59696","mean_motion":15.41036032,"eccentricity":0.0003339,"inclination_deg":70.0023,"raan_deg":359.5461,"arg_perigee_deg":270.6323,"mean_anomaly_deg":89.4475,"bstar":0.00040446,"rev_number":5969,"period_min":93.443629486789,"perigee_km":440.7727727621,"apogee_km":445.32796168594,"semimajor_km":6821.187367224,"source":"CELESTRAK","updated_at":"2026-05-25T13:38:20.172979Z"}}}